Printer-friendly version

IAU Minor Planet Center

Minor Planet Center

MPEC 2007-M49 : 2007 MK6 = 2006 KT67

The following Minor Planet Electronic Circular may be linked-to from your own Web pages, but must not otherwise be redistributed electronically.


Read MPEC 2007-M48 Read MPEC 2007-M50


M.P.E.C. 2007-M49                                Issued 2007 June 28, 14:27 UT

     The Minor Planet Electronic Circulars contain information on unusual
         minor planets and routine data on comets.  They are published
   on behalf of Commission 20 of the International Astronomical Union by the
          Minor Planet Center, Smithsonian Astrophysical Observatory,
                          Cambridge, MA 02138, U.S.A.

             Prepared using the Tamkin Foundation Computer Network

                              MPC@CFA.HARVARD.EDU
          URL http://www.cfa.harvard.edu/iau/mpc.html  ISSN 1523-6714

                             2007 MK6 = 2006 KT67

                           Revision to MPEC 2007-M32

Orbital elements:
2007 MK6 = 2006 KT67                                     Earth MOID = 0.0883 AU
Id. K. Ohtsuka
Epoch 2007 Apr. 10.0 TT = JDT 2454200.5                 MPC
M 336.75724              (2000.0)            P               Q
n   0.87723632     Peri.   25.38150     -0.43392191     -0.79466925
a   1.0807493      Node    92.94672     +0.73704781     -0.58408829
e   0.8187040      Incl.   25.15551     +0.51814313     +0.16535315
P   1.12           H   19.9           G   0.15           U   5
Residuals in seconds of arc
060526 G96  0.1-  0.0     070621 703  0.9-  0.5-    070622 651  0.7+  0.1+
060526 G96  0.1-  0.1-    070621 703  0.1-  0.4-    070622 651  0.9+  0.1-
060526 G96  0.5+  0.0     070621 703  0.3-  0.3-    070622 673 (1.3-  3.9+)
060526 G96  0.4+  0.4+    070621 703  0.6+  0.0     070622 673  1.9+  0.7-
060526 G96  0.2-  0.3-    070621 703  0.2+  0.1-    070622 673  1.8+  0.0
060526 G96  0.1+  0.2+    070621 703  0.6+  0.8-    070622 673  1.1+  1.2+
060526 G96  0.3+  0.1-    070621 703  0.9-  0.0     070623 703  0.9-  0.1-
060526 G96  0.2+  0.3-    070621 A55  0.2+  1.7+    070623 703  1.8-  1.3+
060527 G96  0.8-  0.1+    070621 A55  0.5+  1.4+    070623 703  1.0-  1.2+
060527 G96  0.2+  0.4+    070621 A55  0.5+  1.5+    070623 673  0.1-  0.1+
060527 G96  0.6-  0.0     070621 A55  0.1-  1.0+    070623 673  0.3+  0.3-
060527 G96  0.1-  0.3-    070622 649  1.0-  0.6+    070623 673  0.1+  0.4+
070621 703  0.4-  0.4-    070622 649  0.3-  0.1-    070623 673  0.4-  0.6-
070621 703  0.6-  0.3-    070622 649  0.9-  0.3-    070627 673  0.1+  0.0
070621 703  0.7-  0.3-    070622 703  0.8-  0.7-    070627 673  0.1-  0.3-
070621 703  0.3+  0.2-    070622 703  0.2-  0.5-    070627 673  0.4+  1.0-
070621 703  0.6-  0.7-    070622 703  0.2+  1.0-    070627 673  0.2+  0.1-
070621 703  0.1-  0.1+    070622 703  0.3+  0.3-
070621 703  0.6+  0.2-    070622 651  0.5+  0.6-

Ephemeris:
2007 MK6                 a,e,i = 1.08, 0.82, 25                  q = 0.1959
Date    TT    R. A. (2000) Decl.     Delta      r     Elong.  Phase     V
2007 06 29    14 20.81   +02 05.8    0.243    1.139   114.4    54.4    19.1
2007 07 04    14 39.94   -06 31.6    0.322    1.201   117.7    48.5    19.7
2007 07 09    14 52.87   -11 45.7    0.407    1.259   117.9    45.5    20.2
2007 07 14    15 02.86   -15 15.1    0.496    1.315   116.5    43.8    20.7
2007 07 19    15 11.36   -17 45.3    0.586    1.367   114.4    42.6    21.1
2007 07 24    15 19.06   -19 39.2    0.678    1.416   111.9    41.7    21.4
2007 07 29    15 26.32   -21 09.4    0.772    1.463   109.1    41.0    21.8

Timothy B. Spahr             (C) Copyright 2007 MPC           M.P.E.C. 2007-M49

Read MPEC 2007-M48 Read MPEC 2007-M50


Our Web policy. Index to the CBAT/MPC/ICQ pages.


Valid HTML 4.01!